When you browse on this site, cookies collect data to enhance your experience and personalize the content and advertising you see.
Visit our Privacy Policy to learn more. By continuing to use the site, you agree to this use of cookies and data.

Meteo orario Bolotskoe

Oggi, 3 Luglio, Venerdi

Tempo Temperatura Precipitazioni Vento Pressione Umidità
00:00 +19°C° 0 mm 3 m/s 745 mm Hg 95%
01:00 +19°C° 0 mm 3 m/s 745 mm Hg 95%
02:00 +19°C° 0 mm 2 m/s 745 mm Hg 96%
03:00 +19°C° 0 mm 2 m/s 745 mm Hg 96%
04:00 +19°C° 0 mm 2 m/s 745 mm Hg 96%
05:00 +20°C° 0 mm 2 m/s 745 mm Hg 95%
06:00 +21°C° 0.1 mm 2 m/s 745 mm Hg 92%
07:00 +23°C° 0.1 mm 2 m/s 745 mm Hg 88%
08:00 +25°C° 0.1 mm 3 m/s 746 mm Hg 85%
09:00 +26°C° 1.1 mm 3 m/s 746 mm Hg 82%
10:00 +27°C° 1.1 mm 3 m/s 746 mm Hg 78%
11:00 +27°C° 1.1 mm 3 m/s 746 mm Hg 75%
12:00 +27°C° 1.6 mm 3 m/s 746 mm Hg 77%
13:00 +27°C° 1.6 mm 3 m/s 746 mm Hg 78%
14:00 +27°C° 1.6 mm 3 m/s 746 mm Hg 79%
15:00 +27°C° 0.3 mm 2 m/s 746 mm Hg 79%
16:00 +26°C° 0.3 mm 2 m/s 746 mm Hg 78%
17:00 +26°C° 0.3 mm 1 m/s 745 mm Hg 77%
18:00 +25°C° 0.1 mm 1 m/s 746 mm Hg 81%
19:00 +24°C° 0.1 mm 2 m/s 746 mm Hg 86%
20:00 +21°C° 0.1 mm 2 m/s 746 mm Hg 90%
21:00 +21°C° 0.3 mm 2 m/s 745 mm Hg 91%
22:00 +20°C° 0.3 mm 2 m/s 745 mm Hg 92%
23:00 +20°C° 0.3 mm 3 m/s 745 mm Hg 94%

Domani, 4 Luglio, Sabato

Tempo Temperatura Precipitazioni Vento Pressione Umidità
00:00 +20°C° 0.1 mm 3 m/s 745 mm Hg 94%
01:00 +19°C° 0.1 mm 3 m/s 745 mm Hg 94%
02:00 +19°C° 0.1 mm 3 m/s 745 mm Hg 94%
03:00 +19°C° 0 mm 3 m/s 745 mm Hg 94%
04:00 +20°C° 0 mm 3 m/s 745 mm Hg 94%
05:00 +20°C° 0 mm 3 m/s 745 mm Hg 94%
06:00 +21°C° 0.2 mm 3 m/s 745 mm Hg 90%
07:00 +24°C° 0.2 mm 3 m/s 745 mm Hg 87%
08:00 +25°C° 0.2 mm 4 m/s 745 mm Hg 84%
09:00 +26°C° 0.6 mm 4 m/s 745 mm Hg 80%
10:00 +27°C° 0.6 mm 4 m/s 745 mm Hg 77%
11:00 +27°C° 0.6 mm 4 m/s 745 mm Hg 73%
12:00 +27°C° 0.4 mm 4 m/s 745 mm Hg 73%
13:00 +28°C° 0.4 mm 3 m/s 745 mm Hg 73%
14:00 +28°C° 0.4 mm 3 m/s 745 mm Hg 73%
15:00 +27°C° 0.2 mm 3 m/s 745 mm Hg 77%
16:00 +26°C° 0.2 mm 2 m/s 745 mm Hg 82%
17:00 +25°C° 0.2 mm 2 m/s 744 mm Hg 86%
18:00 +24°C° 0 mm 2 m/s 744 mm Hg 87%
19:00 +23°C° 0 mm 2 m/s 745 mm Hg 87%
20:00 +21°C° 0 mm 2 m/s 745 mm Hg 88%
21:00 +20°C° 0 mm 2 m/s 745 mm Hg 88%
22:00 +20°C° 0 mm 2 m/s 745 mm Hg 89%
23:00 +19°C° 0 mm 2 m/s 745 mm Hg 89%

Dopodomani, 5 Luglio, Domenica

Tempo Temperatura Precipitazioni Vento Pressione Umidità
00:00 +19°C° 0.1 mm 2 m/s 745 mm Hg 91%
01:00 +19°C° 0.1 mm 2 m/s 745 mm Hg 93%
02:00 +19°C° 0.1 mm 2 m/s 745 mm Hg 95%
03:00 +19°C° 0.3 mm 2 m/s 745 mm Hg 95%
04:00 +20°C° 0.3 mm 1 m/s 745 mm Hg 95%
05:00 +20°C° 0.3 mm 1 m/s 745 mm Hg 96%
06:00 +21°C° 0.2 mm 1 m/s 745 mm Hg 94%
07:00 +22°C° 0.2 mm 1 m/s 745 mm Hg 91%
08:00 +21°C° 0.2 mm 2 m/s 745 mm Hg 89%
09:00 +23°C° 0.3 mm 1 m/s 745 mm Hg 84%
10:00 +25°C° 0.3 mm 1 m/s 745 mm Hg 79%
11:00 +26°C° 0.3 mm 1 m/s 745 mm Hg 74%
12:00 +26°C° 0.8 mm 1 m/s 744 mm Hg 75%
13:00 +26°C° 0.8 mm 1 m/s 744 mm Hg 76%
14:00 +26°C° 0.8 mm 1 m/s 744 mm Hg 77%
15:00 +25°C° 2 mm 2 m/s 744 mm Hg 83%
16:00 +23°C° 2 mm 2 m/s 744 mm Hg 89%
17:00 +20°C° 2 mm 3 m/s 744 mm Hg 95%
18:00 +20°C° 0.7 mm 2 m/s 744 mm Hg 96%
19:00 +19°C° 0.7 mm 2 m/s 744 mm Hg 96%
20:00 +20°C° 0.7 mm 1 m/s 744 mm Hg 97%
21:00 +20°C° 0.2 mm 1 m/s 744 mm Hg 97%
22:00 +19°C° 0.2 mm 2 m/s 744 mm Hg 97%
23:00 +18°C° 0.2 mm 2 m/s 744 mm Hg 97%

6 Luglio, Lunedi

Tempo Temperatura Precipitazioni Vento Pressione Umidità
00:00 +18°C° 0 mm 2 m/s 744 mm Hg 97%
01:00 +18°C° 0 mm 2 m/s 744 mm Hg 97%
02:00 +19°C° 0 mm 1 m/s 744 mm Hg 96%
03:00 +19°C° 0 mm 1 m/s 744 mm Hg 95%
04:00 +19°C° 0 mm 1 m/s 744 mm Hg 94%
05:00 +19°C° 0 mm 1 m/s 744 mm Hg 94%
06:00 +21°C° 0 mm 1 m/s 744 mm Hg 89%
07:00 +22°C° 0 mm 1 m/s 744 mm Hg 84%
08:00 +23°C° 0 mm 1 m/s 744 mm Hg 80%
09:00 +24°C° 0 mm 1 m/s 744 mm Hg 74%
10:00 +25°C° 0 mm 1 m/s 744 mm Hg 69%
11:00 +27°C° 0 mm 1 m/s 744 mm Hg 64%
12:00 +27°C° 0 mm 2 m/s 744 mm Hg 62%
13:00 +27°C° 0 mm 2 m/s 744 mm Hg 61%
14:00 +28°C° 0 mm 2 m/s 744 mm Hg 60%
15:00 +28°C° 0 mm 2 m/s 743 mm Hg 63%
16:00 +28°C° 0 mm 2 m/s 743 mm Hg 66%
17:00 +27°C° 0 mm 2 m/s 743 mm Hg 70%
18:00 +26°C° 0 mm 2 m/s 743 mm Hg 74%
19:00 +24°C° 0 mm 2 m/s 743 mm Hg 79%
20:00 +21°C° 0 mm 2 m/s 744 mm Hg 83%
21:00 +21°C° 0 mm 2 m/s 744 mm Hg 85%
22:00 +20°C° 0 mm 2 m/s 744 mm Hg 87%
23:00 +19°C° 0 mm 2 m/s 743 mm Hg 89%

7 Luglio, Martedi

Tempo Temperatura Precipitazioni Vento Pressione Umidità
00:00 +19°C° 0 mm 2 m/s 743 mm Hg 90%
01:00 +19°C° 0 mm 2 m/s 743 mm Hg 91%
02:00 +18°C° 0 mm 2 m/s 743 mm Hg 93%
03:00 +19°C° 0 mm 2 m/s 743 mm Hg 92%
04:00 +19°C° 0 mm 2 m/s 743 mm Hg 92%
05:00 +20°C° 0 mm 2 m/s 743 mm Hg 91%
06:00 +21°C° 0 mm 2 m/s 743 mm Hg 87%
07:00 +24°C° 0 mm 3 m/s 743 mm Hg 84%
08:00 +25°C° 0 mm 3 m/s 743 mm Hg 80%
09:00 +26°C° 0 mm 3 m/s 743 mm Hg 76%
10:00 +27°C° 0 mm 3 m/s 742 mm Hg 72%
11:00 +28°C° 0 mm 3 m/s 742 mm Hg 68%
12:00 +29°C° 0 mm 3 m/s 742 mm Hg 66%
13:00 +29°C° 0 mm 3 m/s 742 mm Hg 65%
14:00 +29°C° 0 mm 3 m/s 741 mm Hg 64%
15:00 +29°C° 0.1 mm 3 m/s 741 mm Hg 67%
16:00 +29°C° 0.1 mm 2 m/s 741 mm Hg 70%
17:00 +29°C° 0.1 mm 2 m/s 741 mm Hg 74%
18:00 +27°C° 1.5 mm 2 m/s 741 mm Hg 79%
19:00 +25°C° 1.5 mm 2 m/s 741 mm Hg 83%
20:00 +23°C° 1.5 mm 2 m/s 741 mm Hg 88%
21:00 +23°C° 1.4 mm 2 m/s 741 mm Hg 89%
22:00 +22°C° 1.4 mm 1 m/s 741 mm Hg 90%
23:00 +21°C° 1.4 mm 1 m/s 741 mm Hg 92%

8 Luglio, Mercoledi

Tempo Temperatura Precipitazioni Vento Pressione Umidità
00:00 +19°C° 0.5 mm 2 m/s 741 mm Hg 93%
01:00 +19°C° 0.5 mm 2 m/s 741 mm Hg 95%
02:00 +18°C° 0.5 mm 3 m/s 741 mm Hg 96%
03:00 +18°C° 0.6 mm 3 m/s 741 mm Hg 96%
04:00 +18°C° 0.6 mm 3 m/s 741 mm Hg 96%
05:00 +18°C° 0.6 mm 4 m/s 741 mm Hg 95%
06:00 +18°C° 0.2 mm 4 m/s 741 mm Hg 93%
07:00 +18°C° 0.2 mm 4 m/s 741 mm Hg 91%
08:00 +19°C° 0.2 mm 4 m/s 741 mm Hg 88%
09:00 +20°C° 0 mm 5 m/s 742 mm Hg 85%
10:00 +20°C° 0 mm 5 m/s 742 mm Hg 81%
11:00 +21°C° 0 mm 5 m/s 742 mm Hg 78%
12:00 +21°C° 0 mm 5 m/s 742 mm Hg 76%
13:00 +22°C° 0 mm 5 m/s 742 mm Hg 75%
14:00 +22°C° 0 mm 5 m/s 742 mm Hg 74%
15:00 +22°C° 0 mm 4 m/s 742 mm Hg 75%
16:00 +21°C° 0 mm 4 m/s 742 mm Hg 76%
17:00 +21°C° 0 mm 3 m/s 742 mm Hg 77%
18:00 +20°C° 0 mm 3 m/s 743 mm Hg 79%
19:00 +19°C° 0 mm 3 m/s 743 mm Hg 82%
20:00 +18°C° 0 mm 2 m/s 743 mm Hg 84%
21:00 +17°C° 0 mm 2 m/s 743 mm Hg 84%
22:00 +17°C° 0 mm 2 m/s 743 mm Hg 85%
23:00 +16°C° 0 mm 2 m/s 743 mm Hg 85%
Mostrare altro